Theta_e
345 344 343 342 342 342 341 341 341 340 338 336 335 335 335 340 342 343 343 341 340 338 339 339 339 341 342 341 341 340 340 340 340 338 336 338 340 339 338 338 338 338 337
340 344 344 343 342 342 342 342 341 340 339 337 335 335 336 338 341 342 342 341 340 339 339 339 339 341 340 339 339 338 338 338 337 336 337 339 340 341 337 337 337 337 337
338 341 342 342 342 342 342 342 342 341 340 338 336 335 335 337 339 341 342 341 341 340 342 342 340 341 340 339 338 338 337 336 335 336 337 339 340 339 337 336 336 337 337
337 340 341 342 341 341 341 342 342 341 340 338 337 336 336 337 338 339 340 341 344 343 345 344 342 340 339 339 338 337 337 336 336 336 337 337 340 339 336 336 336 337 337
338 339 340 340 340 340 340 341 341 341 340 339 337 336 336 337 337 338 339 339 343 343 344 345 344 339 337 336 336 337 337 336 336 336 336 337 339 338 337 337 337 336 336
337 338 337 337 338 340 340 340 341 341 341 340 339 337 336 337 337 337 338 340 341 343 343 343 343 338 335 335 336 337 338 337 336 336 337 337 337 337 337 337 336 336 335
333 333 334 337 339 338 338 338 339 340 340 340 340 339 337 337 338 338 338 338 339 339 339 339 339 337 335 336 336 336 337 337 336 336 336 336 337 340 337 336 335 335 335
329 331 332 332 333 333 336 337 338 338 339 340 340 340 339 338 338 338 338 338 338 338 338 338 336 335 335 336 335 336 336 336 336 336 336 336 336 337 336 335 335 335 335
331 331 331 332 331 332 334 336 336 337 338 339 339 340 340 340 339 339 337 338 338 337 336 336 334 335 333 335 335 336 336 336 335 335 335 335 335 335 335 335 334 334 334
342 340 337 333 332 335 336 336 336 337 337 339 341 341 341 342 342 340 338 338 337 336 336 335 331 334 333 333 336 336 336 335 334 334 334 334 334 338 337 334 333 333 331
343 342 341 338 332 335 336 336 336 336 338 338 341 341 342 343 342 341 339 338 336 335 335 333 329 329 333 332 334 335 335 334 333 334 333 333 334 335 334 332 331 330 329
345 344 342 336 331 334 336 337 336 336 338 337 340 342 342 341 339 339 338 338 336 333 329 329 329 328 331 330 332 334 333 333 333 333 332 332 334 334 332 331 329 328 328
343 344 344 341 332 332 335 336 336 336 336 336 339 340 339 339 337 338 338 337 335 327 326 330 331 332 330 330 331 332 332 332 332 332 332 331 333 333 333 328 327 325 326
345 343 344 343 339 334 336 340 336 335 335 336 336 337 336 337 337 336 336 333 329 327 328 328 328 329 329 330 330 331 331 331 331 331 331 330 332 332 332 328 326 325 325
344 346 345 345 342 339 340 342 339 338 336 335 335 335 335 335 335 334 335 332 329 329 330 328 329 328 327 328 329 330 330 330 331 331 330 329 330 330 329 330 325 325 323
342 345 345 345 344 342 340 343 341 338 339 337 336 336 336 335 335 334 334 333 331 330 330 329 328 326 327 329 329 330 329 328 331 331 329 329 327 326 328 329 327 324 322
322 339 345 345 344 342 341 343 342 339 342 340 338 337 337 336 335 334 333 332 331 330 330 331 327 326 327 329 329 329 328 328 330 329 327 326 324 324 324 325 323 323 322
320 329 338 343 344 342 340 342 340 340 341 342 339 338 337 336 335 335 333 331 329 328 330 331 330 329 328 328 329 328 327 328 328 326 324 323 324 323 322 322 321 320 320
315 318 336 343 344 343 340 341 340 340 340 341 339 338 337 336 335 335 333 332 329 328 333 333 329 328 329 329 328 328 326 326 326 324 323 323 323 322 321 321 320 319 320
315 314 331 340 343 341 339 340 339 340 339 338 338 337 336 335 335 334 333 332 331 329 329 331 329 329 328 328 328 327 323 324 324 323 323 323 323 321 320 320 320 319 318
315 316 334 341 341 340 338 337 336 337 338 337 336 336 335 334 334 334 332 333 332 331 329 330 329 328 328 327 328 326 320 322 323 322 323 322 322 320 319 319 319 318 318
314 319 339 340 340 339 338 336 333 334 332 331 335 334 334 334 332 333 333 332 331 330 327 329 328 327 327 327 326 323 321 319 320 321 321 321 320 319 319 319 319 319 318
314 334 339 339 338 337 336 334 333 331 331 331 332 333 333 332 333 332 332 331 329 326 328 327 327 327 327 326 325 322 321 322 320 320 321 320 319 319 319 319 319 319 318
316 330 338 338 337 336 335 333 332 330 328 329 329 331 331 331 331 331 331 329 329 328 327 326 326 327 326 325 323 322 321 320 320 320 319 320 320 320 319 319 318 318 318
329 336 338 338 336 333 334 334 331 328 327 327 328 330 327 326 328 329 330 330 329 328 326 325 326 326 326 324 323 322 321 320 320 319 320 318 320 319 319 319 319 319 319
323 338 338 337 334 333 333 332 331 328 328 328 328 327 327 327 328 328 330 329 327 327 327 326 326 326 326 325 323 321 321 320 320 319 318 317 319 320 320 320 320 320 320
Wind_Speed
20 30 29 27 28 28 27 25 23 22 20 19 17 17 17 19 22 26 27 25 23 23 25 23 23 20 16 14 17 16 16 17 18 18 21 23 24 25 26 27 27 26 25
31 29 28 25 25 27 26 24 22 21 20 18 17 16 16 18 21 23 23 23 23 22 24 23 23 21 18 17 17 16 17 18 19 21 23 24 22 23 24 26 27 26 25
30 28 26 25 25 25 25 23 22 21 20 18 16 15 15 16 18 19 21 21 20 22 23 22 22 20 19 19 18 18 19 20 22 24 26 25 22 21 24 25 25 25 24
30 29 27 24 23 23 24 23 21 20 19 18 17 16 16 16 17 18 19 20 19 20 20 20 20 20 19 19 18 19 21 24 26 27 26 22 22 22 23 24 24 23 24
30 30 27 24 22 21 23 22 21 19 18 17 17 16 15 16 17 17 18 18 19 19 18 18 18 19 19 19 21 23 25 25 26 26 25 23 24 22 23 23 23 23 23
29 27 25 23 22 21 21 21 21 19 18 17 17 17 16 15 16 17 18 19 20 19 18 19 18 17 20 21 23 27 26 24 25 25 24 25 24 23 23 24 25 24 24
28 25 24 23 22 21 21 21 21 20 18 18 18 17 16 16 16 16 16 17 18 17 15 14 13 16 20 22 26 28 25 23 24 25 25 25 25 24 25 25 26 24 24
31 26 24 22 21 20 20 20 20 20 19 18 18 18 17 16 16 16 16 15 14 13 14 13 15 14 19 25 28 26 23 23 24 25 26 26 25 24 25 25 25 25 24
30 27 24 21 20 18 19 19 19 19 19 19 18 18 17 16 16 17 17 18 19 19 19 17 19 16 19 25 28 24 24 26 25 26 27 26 24 25 25 26 24 23 22
31 29 26 22 20 21 20 19 19 19 19 18 17 16 15 16 17 19 21 21 23 19 20 22 25 26 25 26 29 26 26 25 27 29 29 27 27 25 25 24 23 22 23
27 26 25 24 22 21 20 19 19 19 19 19 19 19 18 17 18 20 21 22 22 22 23 25 24 26 23 26 28 28 26 26 27 30 30 28 27 26 25 23 21 21 23
27 26 24 23 24 21 20 20 20 20 21 20 21 21 20 19 19 20 20 23 23 23 24 22 19 13 27 25 27 28 25 25 27 30 30 28 26 24 24 23 20 18 19
31 28 27 24 22 23 22 21 21 21 21 21 21 21 20 21 20 20 22 20 22 21 21 17 18 21 24 26 29 26 25 24 26 29 27 25 23 21 23 22 19 17 17
30 33 31 29 28 26 25 23 22 22 22 23 23 23 22 22 21 22 22 22 24 24 21 21 15 28 23 26 32 26 25 21 27 27 27 24 24 22 21 21 19 18 18
28 35 36 34 32 30 29 28 24 22 23 25 24 25 25 23 23 21 23 24 26 26 24 23 27 31 29 28 31 29 25 23 27 29 28 25 24 22 20 21 20 21 19
32 36 39 36 33 33 34 32 29 25 24 25 27 28 24 23 23 22 24 26 29 25 25 29 32 29 32 31 30 29 27 24 30 31 29 25 22 20 22 21 21 20 19
31 36 40 41 38 36 36 33 31 27 27 28 28 29 26 24 23 22 26 28 28 26 27 29 31 30 30 28 28 21 26 28 31 31 31 26 21 20 22 21 21 19 19
38 33 39 41 42 39 39 36 31 32 26 32 30 31 28 25 24 24 26 29 29 27 26 28 31 29 28 28 27 23 25 30 32 32 29 26 24 24 23 23 22 21 20
39 36 40 40 43 44 41 39 36 30 25 30 30 31 27 25 25 26 26 28 31 29 28 28 31 30 25 23 21 24 27 32 33 31 29 27 26 25 24 22 21 21 21
39 34 38 43 44 37 38 37 34 30 26 27 29 29 28 25 26 28 27 26 27 29 28 28 30 32 28 27 24 26 23 31 35 33 31 29 27 24 24 24 22 21 20
35 29 34 37 36 39 38 35 32 33 30 28 27 27 27 26 26 29 27 27 28 30 31 29 30 29 25 27 21 19 13 23 32 33 32 29 26 25 24 25 24 22 22
26 30 37 42 45 44 41 34 29 34 31 28 27 25 26 27 27 29 29 29 30 29 25 27 29 20 19 28 11 22 4 6 16 31 31 29 26 26 26 27 26 24 23
19 31 37 42 46 38 37 33 25 29 23 22 26 26 26 25 27 27 27 30 30 27 25 29 31 28 21 21 28 9 4 4 12 19 27 28 28 26 28 28 27 26 27
18 33 40 42 41 39 42 33 37 32 24 19 21 27 24 23 25 24 24 26 28 28 26 28 31 30 25 22 26 24 4 14 5 3 17 26 28 30 29 29 28 29 28
8 29 36 39 38 38 40 39 35 25 22 24 24 26 25 24 22 22 22 25 26 26 26 25 25 30 30 27 28 22 17 23 14 5 5 8 22 31 32 30 29 28 29
16 15 26 34 33 35 37 38 36 32 29 27 27 27 26 25 24 22 24 27 26 27 30 28 29 30 31 28 25 25 25 16 13 8 3 7 15 21 29 31 30 30 31
Wind_Direction
185 172 169 164 155 152 152 152 150 149 148 146 148 146 142 140 143 151 158 157 158 156 161 160 158 157 158 152 141 136 132 134 138 139 138 136 132 131 132 129 129 126 125
163 169 170 168 158 154 152 155 155 153 151 151 153 154 151 149 151 154 159 161 159 164 167 165 162 158 156 151 151 145 142 140 141 139 138 136 133 129 135 133 130 128 127
158 163 167 168 163 158 154 158 159 159 158 157 158 160 159 158 157 159 163 165 167 170 169 164 163 159 158 156 158 156 151 148 147 145 142 139 135 133 136 134 130 131 129
159 162 167 169 168 162 157 160 163 165 164 163 166 168 169 168 166 166 167 170 171 170 166 163 165 165 163 163 161 154 151 151 151 149 146 142 137 134 137 135 133 131 131
161 164 168 172 172 169 160 162 166 169 170 170 171 174 177 176 175 173 174 175 174 176 172 168 167 172 168 162 155 149 146 147 150 151 147 145 134 134 134 135 135 135 135
162 167 171 174 174 171 165 165 168 173 176 176 177 178 182 185 183 182 182 179 183 183 178 179 182 178 165 157 151 146 144 147 151 149 144 140 138 139 139 141 140 139 134
164 170 175 177 177 175 171 168 171 176 182 182 182 182 184 189 191 190 191 192 194 192 189 186 187 178 166 158 152 151 150 154 153 151 148 145 142 141 142 143 142 140 137
162 168 174 177 181 180 178 175 174 177 183 188 188 186 187 194 194 196 199 199 199 192 191 181 173 192 180 162 157 159 160 161 156 151 149 145 142 142 140 142 146 145 146
163 163 172 175 179 183 181 180 176 179 181 189 192 192 191 196 196 197 199 198 197 196 196 187 170 188 196 171 161 162 162 163 157 152 144 143 147 144 144 146 148 149 149
165 167 173 179 182 183 182 180 178 180 180 185 186 186 185 191 196 198 204 204 205 200 195 191 190 182 200 183 168 164 163 164 161 154 150 151 152 142 143 147 150 151 151
165 171 175 180 183 185 186 183 180 181 183 181 186 191 189 191 197 201 205 209 207 204 204 203 204 203 209 190 177 163 166 167 166 160 155 156 152 150 153 155 156 162 159
171 178 182 181 184 184 188 189 188 184 188 186 191 194 188 191 196 199 204 210 198 194 206 208 205 200 199 194 183 167 168 170 171 163 164 163 159 157 159 163 164 173 172
189 185 189 187 187 188 190 192 195 193 191 190 194 195 188 190 194 195 204 210 204 204 188 180 182 169 189 199 194 171 171 167 172 169 169 171 159 166 164 168 171 181 181
190 200 199 196 191 192 192 193 195 195 195 194 193 195 187 188 193 194 201 205 193 190 190 180 188 173 187 203 203 174 170 184 182 181 176 176 167 171 172 174 179 187 188
190 198 203 198 193 192 194 190 198 198 195 197 194 195 192 192 195 198 200 198 197 190 188 187 177 173 183 205 205 188 177 184 189 186 180 180 175 177 185 181 190 194 193
201 198 207 201 201 195 198 194 197 199 197 197 197 198 197 200 198 199 194 195 196 198 197 187 180 182 187 204 203 193 189 188 189 184 182 181 185 184 182 183 182 190 194
223 211 205 209 202 198 201 195 191 197 203 204 199 202 199 204 201 200 196 195 196 194 194 189 188 192 198 204 204 179 184 187 187 183 179 180 181 180 178 184 186 189 191
235 204 209 207 205 199 199 196 191 196 205 205 201 200 202 205 202 200 198 197 199 199 197 196 202 205 207 203 194 190 188 187 184 178 179 180 180 179 181 181 181 183 185
233 223 201 201 203 202 199 195 192 194 194 197 198 200 202 202 199 201 203 203 206 203 201 202 208 201 198 200 190 182 190 186 179 180 181 183 181 180 183 182 188 191 188
239 224 200 199 201 190 191 188 186 187 179 188 193 199 200 200 199 203 203 206 204 204 205 205 208 201 206 203 189 177 182 181 178 182 182 182 184 184 185 185 190 192 199
241 213 194 183 186 178 180 178 176 182 184 183 192 195 200 200 201 204 206 203 202 203 205 206 200 198 195 199 175 179 185 177 181 182 183 182 186 190 193 192 193 197 198
230 201 179 183 187 187 185 184 177 180 188 192 198 200 203 204 207 206 205 204 206 203 199 196 197 185 188 190 186 154 154 151 191 184 184 185 188 197 199 199 201 202 202
215 181 178 180 187 182 175 173 173 171 172 184 198 205 207 206 205 206 207 210 206 204 196 201 200 191 190 201 199 162 154 176 144 188 188 193 193 200 205 205 208 208 212
219 195 183 182 178 179 177 172 173 172 168 191 194 203 201 202 205 209 212 212 212 202 209 201 199 200 192 181 172 178 177 153 151 145 202 200 204 203 207 209 211 214 219
271 187 184 177 174 174 173 180 171 165 175 178 194 199 204 211 214 211 210 208 210 210 214 207 197 199 191 176 173 167 162 164 182 152 153 187 209 213 212 215 216 218 221
4 189 177 174 173 167 174 178 175 169 168 171 184 198 204 211 212 213 213 215 215 218 216 210 207 204 190 184 179 174 162 169 182 154 106 170 192 202 212 219 223 227 226